Weather History for KRAC - December, 2012

Change the Weather History Date:

Monday, December 3, 2012

  Actual Average Record
Temperature  
Mean Temperature 56 °F -  
Max Temperature 66 °F 36 °F 66 °F (2012)
Min Temperature 46 °F 22 °F 0 °F (1976)
Degree Days  
Heating Degree Days 9    
Growing Degree Days 6 (Base 50)    
Moisture  
Dew Point 52 °F    
Average Humidity 93    
Maximum Humidity 100    
Minimum Humidity 73    
Precipitation  
Precipitation 0.20 in - - ()
Sea Level Pressure  
Sea Level Pressure 29.87 in    
Wind  
Wind Speed 7 mph (South)    
Max Wind Speed 20 mph    
Max Gust Speed 29 mph    
Visibility 4 miles    
Events Fog , Rain    
Averages and records for this station are not official NWS values.
T = Trace of Precipitation, MM = Missing Value Source: NWS Daily Summary

Daily Weather History Graph

Daily Weather History Graph

Search for Another Location

Airport or City:

Trip Planner

Search our weather history database for the weather conditions in past years. The results will help you decide how hot, cold, wet, or windy it might be!

Date:

Astronomy

Dec. 03, 2012 Rise Set
Actual Time 7:04 AM CST 4:17 PM CST
Civil Twilight 6:32 AM CST 4:49 PM CST
Nautical Twilight 5:57 AM CST 5:24 PM CST
Astronomical Twilight 5:23 AM CST 5:58 PM CST
Moon 9:08 PM CST (12/3) 10:24 AM CST (12/3)
Length of Visible Light 10h 16m
Length of Day
9h 13m
Waning Gibbous, 78% of the Moon is Illuminated
Dec 3
Waning Gibbous
Dec 6
Last Quarter
Dec 13
New
Dec 19
First Quarter
Dec 28
Full

Hourly Weather History & Observations

Time (CST) Temp. Windchill Dew Point Humidity Pressure Visibility Wind Dir Wind Speed Gust Speed Precip Events Conditions
12:53 AM 46.0 °F - 44.1 °F 93% 30.06 in 3.0 mi Calm Calm - N/A   Overcast
1:53 AM 46.0 °F 43.9 °F 44.1 °F 93% 30.05 in 3.0 mi ESE 4.6 mph - N/A   Overcast
2:13 AM 46.4 °F 44.3 °F 44.6 °F 93% 30.04 in 3.0 mi SE 4.6 mph - N/A   Overcast
2:25 AM 46.4 °F 42.9 °F 44.6 °F 93% 30.04 in 2.5 mi SE 6.9 mph - N/A   Overcast
2:33 AM 46.4 °F 43.5 °F 44.6 °F 93% 30.04 in 0.8 mi SE 5.8 mph - N/A   Overcast
2:53 AM 46.0 °F 43.1 °F 46.0 °F 100% 30.04 in 0.2 mi SE 5.8 mph - N/A Fog Fog
3:53 AM 46.9 °F - 46.9 °F 100% 30.01 in 0.2 mi South 4.6 mph - N/A Fog Fog
4:53 AM 46.9 °F - 46.9 °F 100% 29.99 in 0.2 mi SSE 6.9 mph - N/A Fog Fog
5:53 AM 46.9 °F - 46.9 °F 100% 29.98 in 0.2 mi SSE 9.2 mph - N/A Fog Fog
6:53 AM 48.0 °F - 48.0 °F 100% 29.97 in 0.2 mi South 5.8 mph - N/A Fog Fog
7:53 AM 48.9 °F - 48.9 °F 100% 29.96 in 0.2 mi South 9.2 mph - 0.01 in Fog Fog
9:53 AM 52.0 °F - 52.0 °F 100% 29.92 in 0.2 mi SSE 9.2 mph - N/A Fog Fog
10:53 AM 53.1 °F - 53.1 °F 100% 29.89 in 0.2 mi South 9.2 mph - N/A Fog Fog
11:53 AM 54.0 °F - 54.0 °F 100% 29.85 in 0.8 mi SSE 6.9 mph - N/A   Mist
12:14 PM 55.4 °F - 55.4 °F 100% 29.83 in 1.0 mi SSE 8.1 mph - N/A   Overcast
12:53 PM 55.9 °F - 55.9 °F 100% 29.82 in 1.5 mi South 10.4 mph - N/A   Overcast
1:53 PM 55.0 °F - 54.0 °F 96% 29.78 in 1.2 mi South 12.7 mph - N/A   Overcast
2:30 PM 55.4 °F - 55.4 °F 100% 29.76 in 2.0 mi SSE 12.7 mph - N/A   Overcast
2:45 PM 55.4 °F - 55.4 °F 100% 29.75 in 2.0 mi South 13.8 mph 21.9 mph N/A   Overcast
2:53 PM 55.9 °F - 55.0 °F 97% 29.75 in 2.0 mi South 13.8 mph - N/A   Overcast
3:39 PM 55.4 °F - 55.4 °F 100% 29.77 in 3.0 mi South 6.9 mph - N/A   Overcast
3:53 PM 55.9 °F - 54.0 °F 93% 29.78 in 3.0 mi South 4.6 mph - N/A   Mostly Cloudy
4:53 PM 62.1 °F - 57.0 °F 84% 29.77 in 8.0 mi SSW 9.2 mph - N/A   Overcast
5:53 PM 64.9 °F - 57.0 °F 75% 29.75 in 10.0 mi SSW 11.5 mph - N/A   Mostly Cloudy
6:53 PM 66.0 °F - 57.0 °F 73% 29.75 in 10.0 mi SSW 15.0 mph 25.3 mph N/A   Overcast
7:14 PM 62.6 °F - 59.0 °F 88% 29.76 in 1.8 mi SW 15.0 mph 28.8 mph 0.12 in Rain Heavy Rain
7:23 PM 62.6 °F - 59.0 °F 88% 29.76 in 3.0 mi SSW 15.0 mph 20.7 mph 0.15 in Rain Light Rain
7:53 PM 62.1 °F - 57.9 °F 86% 29.76 in 10.0 mi SSW 11.5 mph - 0.15 in   Overcast
8:53 PM 63.0 °F - 55.9 °F 78% 29.76 in 10.0 mi SSW 19.6 mph 25.3 mph 0.00 in   Mostly Cloudy
9:53 PM 61.0 °F - 57.9 °F 90% 29.81 in 9.0 mi SW 10.4 mph - 0.04 in   Overcast
10:53 PM 60.1 °F - 57.0 °F 90% 29.85 in 8.0 mi WSW 6.9 mph - N/A   Overcast
11:11 PM 59.0 °F - 51.8 °F 77% 29.87 in 10.0 mi WNW 11.5 mph 25.3 mph N/A   Overcast
11:20 PM 57.2 °F - 50.0 °F 77% 29.87 in 9.0 mi NW 13.8 mph 25.3 mph N/A   Overcast